Time,TemperatureF,DewpointF,PressureIn,WindDirection,WindDirectionDegrees,WindSpeedMPH,WindSpeedGustMPH,Humidity,HourlyPrecipIn,Conditions,Clouds,dailyrainin,SoftwareType,DateUTC
2013-02-01 00:09:00,50.0,43.1,30.15,NNW,337,0.0,4.0,77,0.00,,,0.00,Weather View 32 v70,2013-02-01 08:09:00,
2013-02-01 00:14:00,50.0,43.1,30.15,WNW,292,0.0,4.0,77,0.00,,,0.00,Weather View 32 v70,2013-02-01 08:14:00,
2013-02-01 00:19:00,49.0,42.1,30.15,NW,315,0.0,4.0,77,0.00,,,0.00,Weather View 32 v70,2013-02-01 08:19:00,
2013-02-01 00:24:00,49.0,42.1,30.15,ENE,67,0.0,4.0,77,0.00,,,0.00,Weather View 32 v70,2013-02-01 08:24:00,
2013-02-01 00:29:00,49.0,43.1,30.15,WNW,292,0.0,4.0,80,0.00,,,0.00,Weather View 32 v70,2013-02-01 08:29:00,
2013-02-01 00:34:00,49.0,42.1,30.15,NW,315,0.0,4.0,77,0.00,,,0.00,Weather View 32 v70,2013-02-01 08:34:00,
2013-02-01 00:38:00,49.0,42.1,30.15,NW,315,0.0,4.0,77,0.00,,,0.00,Weather View 32 v70,2013-02-01 08:38:00,
2013-02-01 00:44:00,49.0,42.1,30.14,NNE,22,0.0,4.0,77,0.00,,,0.00,Weather View 32 v70,2013-02-01 08:44:00,
2013-02-01 00:54:00,49.0,42.1,30.14,WNW,292,0.0,4.0,77,0.00,,,0.00,Weather View 32 v70,2013-02-01 08:54:00,
2013-02-01 00:59:00,49.0,42.1,30.15,NNW,337,0.0,4.0,77,0.00,,,0.00,Weather View 32 v70,2013-02-01 08:59:00,
2013-02-01 01:00:00,49.0,42.1,30.15,NNE,22,0.0,4.0,77,0.00,,,0.00,Weather View 32 v70,2013-02-01 09:00:00,
2013-02-01 01:10:00,49.0,42.1,30.15,WSW,247,0.0,4.0,77,0.00,,,0.00,Weather View 32 v70,2013-02-01 09:10:00,
2013-02-01 01:15:00,49.0,42.1,30.15,NNE,22,0.0,4.0,77,0.00,,,0.00,Weather View 32 v70,2013-02-01 09:15:00,
2013-02-01 01:20:00,48.0,41.1,30.15,NNE,22,0.0,4.0,77,0.00,,,0.00,Weather View 32 v70,2013-02-01 09:20:00,
2013-02-01 01:29:00,48.0,41.1,30.15,NNE,22,0.0,4.0,77,0.00,,,0.00,Weather View 32 v70,2013-02-01 09:29:00,
2013-02-01 01:34:00,48.0,41.1,30.15,NNE,22,0.0,4.0,77,0.00,,,0.00,Weather View 32 v70,2013-02-01 09:34:00,
2013-02-01 01:39:00,48.0,41.1,30.15,NNE,22,0.0,4.0,77,0.00,,,0.00,Weather View 32 v70,2013-02-01 09:39:00,
2013-02-01 01:44:00,48.0,41.1,30.15,NNE,22,0.0,3.0,77,0.00,,,0.00,Weather View 32 v70,2013-02-01 09:44:00,
2013-02-01 01:49:00,48.0,41.1,30.15,NNE,22,0.0,3.0,77,0.00,,,0.00,Weather View 32 v70,2013-02-01 09:49:00,
2013-02-01 01:54:00,48.0,41.1,30.15,NNE,22,0.0,3.0,77,0.00,,,0.00,Weather View 32 v70,2013-02-01 09:54:00,
2013-02-01 01:59:00,47.0,40.2,30.15,NNE,22,0.0,3.0,77,0.00,,,0.00,Weather View 32 v70,2013-02-01 09:59:00,
2013-02-01 02:04:00,48.0,41.5,30.15,NNE,22,0.0,3.0,78,0.00,,,0.00,Weather View 32 v70,2013-02-01 10:04:00,
2013-02-01 02:09:00,48.0,41.5,30.15,NNE,22,0.0,3.0,78,0.00,,,0.00,Weather View 32 v70,2013-02-01 10:09:00,
2013-02-01 02:14:00,48.0,42.4,30.15,NNE,22,0.0,3.0,81,0.00,,,0.00,Weather View 32 v70,2013-02-01 10:14:00,
2013-02-01 02:19:00,48.0,41.5,30.15,NNE,22,0.0,3.0,78,0.00,,,0.00,Weather View 32 v70,2013-02-01 10:19:00,
2013-02-01 02:24:00,47.0,40.2,30.16,NNE,22,0.0,3.0,77,0.00,,,0.00,Weather View 32 v70,2013-02-01 10:24:00,
2013-02-01 02:29:00,46.0,39.2,30.16,NNE,22,0.0,1.0,77,0.00,,,0.00,Weather View 32 v70,2013-02-01 10:29:00,
2013-02-01 02:34:00,46.0,39.5,30.16,NNE,22,0.0,0.0,78,0.00,,,0.00,Weather View 32 v70,2013-02-01 10:34:00,
2013-02-01 02:39:00,46.0,39.8,30.17,NNE,22,0.0,0.0,79,0.00,,,0.00,Weather View 32 v70,2013-02-01 10:39:00,
2013-02-01 02:44:00,47.0,40.5,30.16,NNE,22,0.0,0.0,78,0.00,,,0.00,Weather View 32 v70,2013-02-01 10:44:00,
2013-02-01 02:49:00,47.0,41.5,30.16,NNE,22,0.0,0.0,81,0.00,,,0.00,Weather View 32 v70,2013-02-01 10:49:00,
2013-02-01 02:54:00,47.0,40.5,30.16,NNE,22,0.0,0.0,78,0.00,,,0.00,Weather View 32 v70,2013-02-01 10:54:00,
2013-02-01 02:59:00,47.0,40.5,30.16,NNE,22,0.0,0.0,78,0.00,,,0.00,Weather View 32 v70,2013-02-01 10:59:00,
2013-02-01 03:04:00,46.0,39.8,30.16,NNE,22,0.0,0.0,79,0.00,,,0.00,Weather View 32 v70,2013-02-01 11:04:00,
2013-02-01 03:09:00,46.0,39.8,30.16,NNE,22,0.0,0.0,79,0.00,,,0.00,Weather View 32 v70,2013-02-01 11:09:00,
2013-02-01 03:14:00,46.0,39.8,30.16,NNE,22,0.0,0.0,79,0.00,,,0.00,Weather View 32 v70,2013-02-01 11:14:00,
2013-02-01 03:19:00,46.0,39.8,30.16,ENE,67,0.0,0.0,79,0.00,,,0.00,Weather View 32 v70,2013-02-01 11:19:00,
2013-02-01 03:24:00,47.0,41.8,30.15,ESE,112,0.0,0.0,82,0.00,,,0.00,Weather View 32 v70,2013-02-01 11:24:00,
2013-02-01 03:29:00,47.0,40.5,30.15,ESE,112,0.0,0.0,78,0.00,,,0.00,Weather View 32 v70,2013-02-01 11:29:00,
2013-02-01 03:34:00,46.0,39.8,30.16,ESE,112,0.0,0.0,79,0.00,,,0.00,Weather View 32 v70,2013-02-01 11:34:00,
2013-02-01 03:40:00,45.0,38.9,30.16,ESE,112,0.0,0.0,79,0.00,,,0.00,Weather View 32 v70,2013-02-01 11:40:00,
2013-02-01 03:44:00,45.0,38.9,30.16,ESE,112,0.0,0.0,79,0.00,,,0.00,Weather View 32 v70,2013-02-01 11:44:00,
2013-02-01 03:49:00,45.0,38.9,30.16,ESE,112,0.0,0.0,79,0.00,,,0.00,Weather View 32 v70,2013-02-01 11:49:00,
2013-02-01 03:54:00,45.0,38.9,30.16,ESE,112,0.0,0.0,79,0.00,,,0.00,Weather View 32 v70,2013-02-01 11:54:00,
2013-02-01 03:59:00,45.0,39.8,30.16,ESE,112,0.0,0.0,82,0.00,,,0.00,Weather View 32 v70,2013-02-01 11:59:00,
2013-02-01 04:04:00,45.0,38.9,30.16,ESE,112,0.0,0.0,79,0.00,,,0.00,Weather View 32 v70,2013-02-01 12:04:00,
2013-02-01 04:09:00,45.0,38.9,30.16,ESE,112,0.0,0.0,79,0.00,,,0.00,Weather View 32 v70,2013-02-01 12:09:00,
2013-02-01 04:14:00,45.0,38.9,30.17,ESE,112,0.0,0.0,79,0.00,,,0.00,Weather View 32 v70,2013-02-01 12:14:00,
2013-02-01 04:19:00,45.0,38.9,30.17,ESE,112,0.0,0.0,79,0.00,,,0.00,Weather View 32 v70,2013-02-01 12:19:00,
2013-02-01 04:24:00,45.0,38.9,30.16,ESE,112,0.0,0.0,79,0.00,,,0.00,Weather View 32 v70,2013-02-01 12:24:00,
2013-02-01 04:29:00,45.0,38.9,30.16,ESE,112,0.0,0.0,79,0.00,,,0.00,Weather View 32 v70,2013-02-01 12:29:00,
2013-02-01 04:34:00,45.0,39.8,30.16,ESE,112,0.0,0.0,82,0.00,,,0.00,Weather View 32 v70,2013-02-01 12:34:00,
2013-02-01 04:39:00,44.0,37.9,30.16,ESE,112,0.0,0.0,79,0.00,,,0.00,Weather View 32 v70,2013-02-01 12:39:00,
2013-02-01 04:44:00,45.0,38.9,30.16,ESE,112,0.0,0.0,79,0.00,,,0.00,Weather View 32 v70,2013-02-01 12:44:00,
2013-02-01 04:49:00,45.0,38.9,30.16,ENE,67,0.0,0.0,79,0.00,,,0.00,Weather View 32 v70,2013-02-01 12:49:00,
2013-02-01 04:54:00,45.0,38.9,30.16,ENE,67,0.0,0.0,79,0.00,,,0.00,Weather View 32 v70,2013-02-01 12:54:00,
2013-02-01 04:59:00,44.0,37.9,30.16,ENE,67,0.0,0.0,79,0.00,,,0.00,Weather View 32 v70,2013-02-01 12:59:00,
2013-02-01 05:04:00,44.0,37.9,30.17,ENE,67,0.0,0.0,79,0.00,,,0.00,Weather View 32 v70,2013-02-01 13:04:00,
2013-02-01 05:09:00,44.0,38.9,30.17,ENE,67,0.0,0.0,82,0.00,,,0.00,Weather View 32 v70,2013-02-01 13:09:00,
2013-02-01 05:14:00,45.0,38.9,30.17,ENE,67,0.0,0.0,79,0.00,,,0.00,Weather View 32 v70,2013-02-01 13:14:00,
2013-02-01 05:19:00,45.0,38.9,30.16,ENE,67,0.0,0.0,79,0.00,,,0.00,Weather View 32 v70,2013-02-01 13:19:00,
2013-02-01 05:24:00,45.0,38.9,30.16,ENE,67,0.0,0.0,79,0.00,,,0.00,Weather View 32 v70,2013-02-01 13:24:00,
2013-02-01 05:29:00,45.0,38.9,30.16,ENE,67,0.0,0.0,79,0.00,,,0.00,Weather View 32 v70,2013-02-01 13:29:00,
2013-02-01 05:34:00,45.0,38.9,30.16,ENE,67,0.0,0.0,79,0.00,,,0.00,Weather View 32 v70,2013-02-01 13:34:00,
2013-02-01 05:39:00,45.0,38.9,30.16,ENE,67,0.0,0.0,79,0.00,,,0.00,Weather View 32 v70,2013-02-01 13:39:00,
2013-02-01 05:40:00,45.0,38.9,30.16,ENE,67,0.0,0.0,79,0.00,,,0.00,Weather View 32 v70,2013-02-01 13:40:00,
2013-02-01 05:44:00,45.0,39.8,30.16,ENE,67,0.0,0.0,82,0.00,,,0.00,Weather View 32 v70,2013-02-01 13:44:00,
2013-02-01 05:49:00,45.0,38.9,30.16,ENE,67,0.0,0.0,79,0.00,,,0.00,Weather View 32 v70,2013-02-01 13:49:00,
2013-02-01 05:54:00,45.0,38.9,30.16,ENE,67,0.0,0.0,79,0.00,,,0.00,Weather View 32 v70,2013-02-01 13:54:00,
2013-02-01 05:59:00,44.0,37.9,30.17,ENE,67,0.0,0.0,79,0.00,,,0.00,Weather View 32 v70,2013-02-01 13:59:00,
2013-02-01 06:05:00,44.0,38.9,30.17,ENE,67,0.0,0.0,82,0.00,,,0.00,Weather View 32 v70,2013-02-01 14:05:00,
2013-02-01 06:10:00,44.0,37.9,30.17,ENE,67,0.0,0.0,79,0.00,,,0.00,Weather View 32 v70,2013-02-01 14:10:00,
2013-02-01 06:15:00,45.0,38.9,30.16,ENE,67,0.0,0.0,79,0.00,,,0.00,Weather View 32 v70,2013-02-01 14:15:00,
2013-02-01 06:20:00,44.0,37.9,30.16,ENE,67,0.0,0.0,79,0.00,,,0.00,Weather View 32 v70,2013-02-01 14:20:00,
2013-02-01 06:25:00,45.0,38.9,30.16,ENE,67,0.0,0.0,79,0.00,,,0.00,Weather View 32 v70,2013-02-01 14:25:00,
2013-02-01 06:30:00,45.0,38.9,30.16,ENE,67,0.0,0.0,79,0.00,,,0.00,Weather View 32 v70,2013-02-01 14:30:00,
2013-02-01 06:34:00,45.0,38.9,30.16,ENE,67,0.0,0.0,79,0.00,,,0.00,Weather View 32 v70,2013-02-01 14:34:00,
2013-02-01 06:39:00,45.0,38.9,30.16,ENE,67,0.0,0.0,79,0.00,,,0.00,Weather View 32 v70,2013-02-01 14:39:00,
2013-02-01 06:42:00,45.0,38.9,30.16,ENE,67,0.0,0.0,79,0.00,,,0.00,Weather View 32 v70,2013-02-01 14:42:00,
2013-02-01 06:44:00,45.0,38.9,30.15,ENE,67,0.0,0.0,79,0.00,,,0.00,Weather View 32 v70,2013-02-01 14:44:00,
2013-02-01 06:49:00,45.0,38.2,30.16,ENE,67,0.0,0.0,77,0.00,,,0.00,Weather View 32 v70,2013-02-01 14:49:00,
2013-02-01 06:54:00,45.0,37.2,30.16,ENE,67,0.0,0.0,74,0.00,,,0.00,Weather View 32 v70,2013-02-01 14:54:00,
2013-02-01 06:59:00,44.0,33.0,30.16,ENE,67,0.0,0.0,65,0.00,,,0.00,Weather View 32 v70,2013-02-01 14:59:00,
2013-02-01 07:04:00,45.0,33.5,30.16,SW,225,0.0,0.0,64,0.00,,,0.00,Weather View 32 v70,2013-02-01 15:04:00,
2013-02-01 07:09:00,45.0,33.1,30.16,SW,225,0.0,0.0,63,0.00,,,0.00,Weather View 32 v70,2013-02-01 15:09:00,
2013-02-01 07:14:00,45.0,33.1,30.16,SE,135,0.0,0.0,63,0.00,,,0.00,Weather View 32 v70,2013-02-01 15:14:00,
2013-02-01 07:19:00,46.0,33.7,30.17,ESE,112,0.0,2.0,62,0.00,,,0.00,Weather View 32 v70,2013-02-01 15:19:00,
2013-02-01 07:24:00,46.0,33.3,30.16,SE,135,0.0,2.0,61,0.00,,,0.00,Weather View 32 v70,2013-02-01 15:24:00,
2013-02-01 07:29:00,46.0,-49.6,30.16,ESE,112,0.0,2.0,1,0.00,,,0.00,Weather View 32 v70,2013-02-01 15:29:00,
2013-02-01 07:34:00,46.0,32.0,30.16,ESE,112,0.0,2.0,58,0.00,,,0.00,Weather View 32 v70,2013-02-01 15:34:00,
2013-02-01 07:39:00,46.0,31.6,30.16,ESE,112,0.0,2.0,57,0.00,,,0.00,Weather View 32 v70,2013-02-01 15:39:00,
2013-02-01 07:42:00,46.0,31.6,30.16,ESE,112,0.0,2.0,57,0.00,,,0.00,Weather View 32 v70,2013-02-01 15:42:00,
2013-02-01 07:44:00,47.0,32.1,30.16,ESE,112,0.0,2.0,56,0.00,,,0.00,Weather View 32 v70,2013-02-01 15:44:00,
2013-02-01 07:49:00,47.0,31.6,30.16,ESE,112,0.0,2.0,55,0.00,,,0.00,Weather View 32 v70,2013-02-01 15:49:00,
2013-02-01 07:54:00,48.0,32.6,30.16,ESE,112,0.0,2.0,55,0.00,,,0.00,Weather View 32 v70,2013-02-01 15:54:00,
2013-02-01 07:59:00,48.0,32.1,30.15,ESE,112,0.0,2.0,54,0.00,,,0.00,Weather View 32 v70,2013-02-01 15:59:00,
2013-02-01 08:04:00,49.0,-47.8,30.15,ESE,112,0.0,2.0,1,0.00,,,0.00,Weather View 32 v70,2013-02-01 16:04:00,
2013-02-01 08:09:00,49.0,33.0,30.15,ENE,67,0.0,2.0,54,0.00,,,0.00,Weather View 32 v70,2013-02-01 16:09:00,
2013-02-01 08:14:00,50.0,34.0,30.15,NE,45,0.0,2.0,54,0.00,,,0.00,Weather View 32 v70,2013-02-01 16:14:00,
2013-02-01 08:19:00,50.0,34.0,30.15,ENE,67,0.0,4.0,54,0.00,,,0.00,Weather View 32 v70,2013-02-01 16:19:00,
2013-02-01 08:24:00,50.0,33.5,30.15,ENE,67,0.0,4.0,53,0.00,,,0.00,Weather View 32 v70,2013-02-01 16:24:00,
2013-02-01 08:29:00,51.0,34.0,30.15,ENE,67,0.0,4.0,52,0.00,,,0.00,Weather View 32 v70,2013-02-01 16:29:00,
2013-02-01 08:34:00,51.0,34.0,30.15,ENE,67,0.0,4.0,52,0.00,,,0.00,Weather View 32 v70,2013-02-01 16:34:00,
2013-02-01 08:39:00,52.0,-46.0,30.15,ENE,67,0.0,4.0,1,0.00,,,0.00,Weather View 32 v70,2013-02-01 16:39:00,
2013-02-01 08:43:00,52.0,-46.0,30.15,ENE,67,0.0,4.0,1,0.00,,,0.00,Weather View 32 v70,2013-02-01 16:43:00,
2013-02-01 08:44:00,52.0,34.4,30.15,ENE,67,0.0,4.0,51,0.00,,,0.00,Weather View 32 v70,2013-02-01 16:44:00,
2013-02-01 08:49:00,52.0,33.9,30.14,ENE,67,0.0,4.0,50,0.00,,,0.00,Weather View 32 v70,2013-02-01 16:49:00,
2013-02-01 08:54:00,53.0,34.3,30.14,ENE,67,1.0,5.0,49,0.00,,,0.00,Weather View 32 v70,2013-02-01 16:54:00,
2013-02-01 08:59:00,53.0,34.3,30.14,ENE,67,0.0,5.0,49,0.00,,,0.00,Weather View 32 v70,2013-02-01 16:59:00,
2013-02-01 09:04:00,54.0,35.2,30.14,ENE,67,0.0,5.0,49,0.00,,,0.00,Weather View 32 v70,2013-02-01 17:04:00,
2013-02-01 09:09:00,55.0,35.6,30.14,ENE,67,0.0,5.0,48,0.00,,,0.00,Weather View 32 v70,2013-02-01 17:09:00,
2013-02-01 09:14:00,55.0,-44.1,30.14,NE,45,2.0,7.0,1,0.00,,,0.00,Weather View 32 v70,2013-02-01 17:14:00,
2013-02-01 09:19:00,55.0,35.6,30.14,ENE,67,5.0,7.0,48,0.00,,,0.00,Weather View 32 v70,2013-02-01 17:19:00,
2013-02-01 09:24:00,55.0,35.6,30.14,ENE,67,2.0,7.0,48,0.00,,,0.00,Weather View 32 v70,2013-02-01 17:24:00,
2013-02-01 09:29:00,55.0,35.6,30.14,ENE,67,0.0,7.0,48,0.00,,,0.00,Weather View 32 v70,2013-02-01 17:29:00,
2013-02-01 09:34:00,56.0,36.5,30.14,NE,45,0.0,7.0,48,0.00,,,0.00,Weather View 32 v70,2013-02-01 17:34:00,
2013-02-01 09:39:00,56.0,36.0,30.14,NE,45,2.0,7.0,47,0.00,,,0.00,Weather View 32 v70,2013-02-01 17:39:00,
2013-02-01 09:43:00,56.0,36.0,30.14,NE,45,2.0,7.0,47,0.00,,,0.00,Weather View 32 v70,2013-02-01 17:43:00,
2013-02-01 09:44:00,57.0,36.9,30.13,NE,45,0.0,7.0,47,0.00,,,0.00,Weather View 32 v70,2013-02-01 17:44:00,
2013-02-01 09:49:00,57.0,-42.9,30.13,ENE,67,3.0,7.0,1,0.00,,,0.00,Weather View 32 v70,2013-02-01 17:49:00,
2013-02-01 09:54:00,57.0,36.9,30.13,ESE,112,2.0,8.0,47,0.00,,,0.00,Weather View 32 v70,2013-02-01 17:54:00,
2013-02-01 09:59:00,57.0,36.9,30.14,ESE,112,4.0,8.0,47,0.00,,,0.00,Weather View 32 v70,2013-02-01 17:59:00,
2013-02-01 10:09:00,58.0,37.8,30.13,SE,135,4.0,8.0,47,0.00,,,0.00,Weather View 32 v70,2013-02-01 18:09:00,
2013-02-01 10:14:00,58.0,37.3,30.13,SE,135,0.0,9.0,46,0.00,,,0.00,Weather View 32 v70,2013-02-01 18:14:00,
2013-02-01 10:19:00,59.0,38.2,30.13,SE,135,0.0,9.0,46,0.00,,,0.00,Weather View 32 v70,2013-02-01 18:19:00,
2013-02-01 10:24:00,59.0,-41.7,30.13,East,90,7.0,9.0,1,0.00,,,0.00,Weather View 32 v70,2013-02-01 18:24:00,
2013-02-01 10:29:00,59.0,38.2,30.13,East,90,3.0,9.0,46,0.00,,,0.00,Weather View 32 v70,2013-02-01 18:29:00,
2013-02-01 10:34:00,59.0,38.2,30.13,ESE,112,4.0,9.0,46,0.00,,,0.00,Weather View 32 v70,2013-02-01 18:34:00,
2013-02-01 10:39:00,59.0,38.2,30.13,ESE,112,1.0,9.0,46,0.00,,,0.00,Weather View 32 v70,2013-02-01 18:39:00,
2013-02-01 10:44:00,59.0,38.2,30.13,ESE,112,1.0,9.0,46,0.00,,,0.00,Weather View 32 v70,2013-02-01 18:44:00,
2013-02-01 10:49:00,59.0,38.2,30.13,East,90,0.0,9.0,46,0.00,,,0.00,Weather View 32 v70,2013-02-01 18:49:00,
2013-02-01 10:54:00,59.0,38.8,30.13,East,90,0.0,9.0,47,0.00,,,0.00,Weather View 32 v70,2013-02-01 18:54:00,
2013-02-01 10:59:00,60.0,-41.1,30.12,SE,135,2.0,9.0,1,0.00,,,0.00,Weather View 32 v70,2013-02-01 18:59:00,
2013-02-01 11:04:00,60.0,39.1,30.12,ESE,112,0.0,9.0,46,0.00,,,0.00,Weather View 32 v70,2013-02-01 19:04:00,
2013-02-01 11:09:00,61.0,39.5,30.12,East,90,4.0,9.0,45,0.00,,,0.00,Weather View 32 v70,2013-02-01 19:09:00,
2013-02-01 11:14:00,60.0,39.1,30.12,SE,135,2.0,10.0,46,0.00,,,0.00,Weather View 32 v70,2013-02-01 19:14:00,
2013-02-01 11:19:00,60.0,38.5,30.12,ESE,112,0.0,10.0,45,0.00,,,0.00,Weather View 32 v70,2013-02-01 19:19:00,
2013-02-01 11:24:00,60.0,38.5,30.11,SE,135,4.0,10.0,45,0.00,,,0.00,Weather View 32 v70,2013-02-01 19:24:00,
2013-02-01 11:29:00,61.0,39.5,30.11,East,90,3.0,10.0,45,0.00,,,0.00,Weather View 32 v70,2013-02-01 19:29:00,
2013-02-01 11:34:00,61.0,-40.5,30.11,East,90,0.0,10.0,1,0.00,,,0.00,Weather View 32 v70,2013-02-01 19:34:00,
2013-02-01 11:39:00,62.0,40.4,30.11,East,90,5.0,10.0,45,0.00,,,0.00,Weather View 32 v70,2013-02-01 19:39:00,
2013-02-01 11:44:00,62.0,39.8,30.11,East,90,6.0,10.0,44,0.00,,,0.00,Weather View 32 v70,2013-02-01 19:44:00,
2013-02-01 11:49:00,62.0,39.8,30.10,East,90,0.0,10.0,44,0.00,,,0.00,Weather View 32 v70,2013-02-01 19:49:00,
2013-02-01 11:54:00,62.0,39.8,30.10,East,90,1.0,10.0,44,0.00,,,0.00,Weather View 32 v70,2013-02-01 19:54:00,
2013-02-01 11:59:00,62.0,39.8,30.09,NNW,337,0.0,10.0,44,0.00,,,0.00,Weather View 32 v70,2013-02-01 19:59:00,
2013-02-01 12:04:00,63.0,40.1,30.08,East,90,3.0,10.0,43,0.00,,,0.00,Weather View 32 v70,2013-02-01 20:04:00,
2013-02-01 12:09:00,63.0,-39.3,30.08,North,360,0.0,10.0,1,0.00,,,0.00,Weather View 32 v70,2013-02-01 20:09:00,
2013-02-01 12:14:00,63.0,40.1,30.08,ESE,112,0.0,9.0,43,0.00,,,0.00,Weather View 32 v70,2013-02-01 20:14:00,
2013-02-01 12:19:00,64.0,42.2,30.08,SE,135,3.0,9.0,45,0.00,,,0.00,Weather View 32 v70,2013-02-01 20:19:00,
2013-02-01 12:24:00,64.0,41.0,30.07,ESE,112,0.0,9.0,43,0.00,,,0.00,Weather View 32 v70,2013-02-01 20:24:00,
2013-02-01 12:29:00,64.0,41.0,30.07,East,90,6.0,9.0,43,0.00,,,0.00,Weather View 32 v70,2013-02-01 20:29:00,
2013-02-01 12:34:00,64.0,40.4,30.06,SE,135,0.0,9.0,42,0.00,,,0.00,Weather View 32 v70,2013-02-01 20:34:00,
2013-02-01 12:39:00,65.0,41.3,30.06,ESE,112,0.0,9.0,42,0.00,,,0.00,Weather View 32 v70,2013-02-01 20:39:00,
2013-02-01 12:45:00,65.0,-38.1,30.06,ESE,112,4.0,9.0,1,0.00,,,0.00,Weather View 32 v70,2013-02-01 20:45:00,
2013-02-01 12:49:00,65.0,41.3,30.06,East,90,0.0,9.0,42,0.00,,,0.00,Weather View 32 v70,2013-02-01 20:49:00,
2013-02-01 12:54:00,66.0,42.8,30.05,SW,225,1.0,9.0,43,0.00,,,0.00,Weather View 32 v70,2013-02-01 20:54:00,
2013-02-01 12:59:00,66.0,41.6,30.05,East,90,0.0,9.0,41,0.00,,,0.00,Weather View 32 v70,2013-02-01 20:59:00,
2013-02-01 13:09:00,67.0,42.5,30.05,North,360,6.0,9.0,41,0.00,,,0.00,Weather View 32 v70,2013-02-01 21:09:00,
2013-02-01 13:14:00,66.0,41.6,30.04,East,90,5.0,7.0,41,0.00,,,0.00,Weather View 32 v70,2013-02-01 21:14:00,
2013-02-01 13:19:00,66.0,-37.5,30.05,North,360,6.0,7.0,1,0.00,,,0.00,Weather View 32 v70,2013-02-01 21:19:00,
2013-02-01 13:24:00,65.0,40.0,30.05,ESE,112,0.0,7.0,40,0.00,,,0.00,Weather View 32 v70,2013-02-01 21:24:00,
2013-02-01 13:29:00,65.0,40.0,30.05,North,360,0.0,7.0,40,0.00,,,0.00,Weather View 32 v70,2013-02-01 21:29:00,
2013-02-01 13:34:00,66.0,40.9,30.04,North,360,7.0,8.0,40,0.00,,,0.00,Weather View 32 v70,2013-02-01 21:34:00,
2013-02-01 13:39:00,66.0,40.9,30.04,East,90,4.0,8.0,40,0.00,,,0.00,Weather View 32 v70,2013-02-01 21:39:00,
2013-02-01 13:44:00,66.0,40.9,30.05,East,90,0.0,8.0,40,0.00,,,0.00,Weather View 32 v70,2013-02-01 21:44:00,
2013-02-01 13:45:00,66.0,40.9,30.05,East,90,0.0,8.0,40,0.00,,,0.00,Weather View 32 v70,2013-02-01 21:45:00,
2013-02-01 13:54:00,66.0,-37.5,30.05,SE,135,0.0,8.0,1,0.00,,,0.00,Weather View 32 v70,2013-02-01 21:54:00,
2013-02-01 13:59:00,67.0,41.2,30.05,North,360,0.0,8.0,39,0.00,,,0.00,Weather View 32 v70,2013-02-01 21:59:00,
2013-02-01 14:04:00,67.0,41.2,30.03,North,360,4.0,9.0,39,0.00,,,0.00,Weather View 32 v70,2013-02-01 22:04:00,
2013-02-01 14:09:00,68.0,42.1,30.03,SW,225,0.0,9.0,39,0.00,,,0.00,Weather View 32 v70,2013-02-01 22:09:00,
2013-02-01 14:14:00,69.0,42.9,30.03,West,270,0.0,9.0,39,0.00,,,0.00,Weather View 32 v70,2013-02-01 22:14:00,
2013-02-01 14:19:00,68.0,42.7,30.03,WSW,247,6.0,9.0,40,0.00,,,0.00,Weather View 32 v70,2013-02-01 22:19:00,
2013-02-01 14:24:00,67.0,40.5,30.04,North,360,6.0,9.0,38,0.00,,,0.00,Weather View 32 v70,2013-02-01 22:24:00,
2013-02-01 14:29:00,67.0,-36.9,30.04,North,360,0.0,9.0,1,0.00,,,0.00,Weather View 32 v70,2013-02-01 22:29:00,
2013-02-01 14:34:00,68.0,41.4,30.04,WNW,292,2.0,9.0,38,0.00,,,0.00,Weather View 32 v70,2013-02-01 22:34:00,
2013-02-01 14:39:00,68.0,40.7,30.03,North,360,4.0,9.0,37,0.00,,,0.00,Weather View 32 v70,2013-02-01 22:39:00,
2013-02-01 14:44:00,68.0,42.1,30.03,WNW,292,1.0,9.0,39,0.00,,,0.00,Weather View 32 v70,2013-02-01 22:44:00,
2013-02-01 14:46:00,68.0,42.1,30.03,WNW,292,1.0,9.0,39,0.00,,,0.00,Weather View 32 v70,2013-02-01 22:46:00,
2013-02-01 14:54:00,68.0,43.4,30.04,SW,225,0.0,9.0,41,0.00,,,0.00,Weather View 32 v70,2013-02-01 22:54:00,
2013-02-01 14:59:00,67.0,43.7,30.04,North,360,0.0,9.0,43,0.00,,,0.00,Weather View 32 v70,2013-02-01 22:59:00,
2013-02-01 15:04:00,67.0,-36.9,30.04,North,360,5.0,9.0,1,0.00,,,0.00,Weather View 32 v70,2013-02-01 23:04:00,
2013-02-01 15:09:00,66.0,42.2,30.04,NW,315,0.0,9.0,42,0.00,,,0.00,Weather View 32 v70,2013-02-01 23:09:00,
2013-02-01 15:14:00,67.0,42.5,30.04,North,360,2.0,9.0,41,0.00,,,0.00,Weather View 32 v70,2013-02-01 23:14:00,
2013-02-01 15:19:00,66.0,42.2,30.05,North,360,3.0,9.0,42,0.00,,,0.00,Weather View 32 v70,2013-02-01 23:19:00,
2013-02-01 15:24:00,67.0,41.8,30.05,North,360,6.0,9.0,40,0.00,,,0.00,Weather View 32 v70,2013-02-01 23:24:00,
2013-02-01 15:29:00,66.0,42.8,30.04,North,360,0.0,9.0,43,0.00,,,0.00,Weather View 32 v70,2013-02-01 23:29:00,
2013-02-01 15:34:00,66.0,44.0,30.05,East,90,0.0,9.0,45,0.00,,,0.00,Weather View 32 v70,2013-02-01 23:34:00,
2013-02-01 15:39:00,66.0,-37.5,30.05,NW,315,1.0,9.0,1,0.00,,,0.00,Weather View 32 v70,2013-02-01 23:39:00,
2013-02-01 15:44:00,66.0,44.0,30.05,NNE,22,0.0,9.0,45,0.00,,,0.00,Weather View 32 v70,2013-02-01 23:44:00,
2013-02-01 15:46:00,66.0,44.0,30.05,NNE,22,0.0,9.0,45,0.00,,,0.00,Weather View 32 v70,2013-02-01 23:46:00,
2013-02-01 15:54:00,66.0,45.1,30.04,NNE,22,2.0,9.0,47,0.00,,,0.00,Weather View 32 v70,2013-02-01 23:54:00,
2013-02-01 15:59:00,65.0,43.7,30.04,SW,225,0.0,9.0,46,0.00,,,0.00,Weather View 32 v70,2013-02-01 23:59:00,
2013-02-01 16:09:00,65.0,44.2,30.05,NW,315,0.0,9.0,47,0.00,,,0.00,Weather View 32 v70,2013-02-02 00:09:00,
2013-02-01 16:14:00,65.0,-38.1,30.05,NW,315,0.0,9.0,1,0.00,,,0.00,Weather View 32 v70,2013-02-02 00:14:00,
2013-02-01 16:19:00,65.0,45.9,30.05,West,270,0.0,9.0,50,0.00,,,0.00,Weather View 32 v70,2013-02-02 00:19:00,
2013-02-01 16:24:00,64.0,46.0,30.05,NW,315,0.0,9.0,52,0.00,,,0.00,Weather View 32 v70,2013-02-02 00:24:00,
2013-02-01 16:29:00,64.0,46.5,30.05,WSW,247,0.0,7.0,53,0.00,,,0.00,Weather View 32 v70,2013-02-02 00:29:00,
2013-02-01 16:34:00,64.0,46.5,30.05,WNW,292,0.0,7.0,53,0.00,,,0.00,Weather View 32 v70,2013-02-02 00:34:00,
2013-02-01 16:39:00,63.0,46.5,30.05,West,270,0.0,7.0,55,0.00,,,0.00,Weather View 32 v70,2013-02-02 00:39:00,
2013-02-01 16:44:00,63.0,46.5,30.06,WNW,292,0.0,7.0,55,0.00,,,0.00,Weather View 32 v70,2013-02-02 00:44:00,
2013-02-01 16:47:00,63.0,46.5,30.06,WNW,292,0.0,7.0,55,0.00,,,0.00,Weather View 32 v70,2013-02-02 00:47:00,
2013-02-01 16:54:00,62.0,46.1,30.06,WSW,247,0.0,6.0,56,0.00,,,0.00,Weather View 32 v70,2013-02-02 00:54:00,
2013-02-01 16:59:00,62.0,46.6,30.07,West,270,0.0,6.0,57,0.00,,,0.00,Weather View 32 v70,2013-02-02 00:59:00,
2013-02-01 17:04:00,62.0,46.6,30.07,SW,225,0.0,5.0,57,0.00,,,0.00,Weather View 32 v70,2013-02-02 01:04:00,
2013-02-01 17:09:00,62.0,47.0,30.07,West,270,0.0,5.0,58,0.00,,,0.00,Weather View 32 v70,2013-02-02 01:09:00,
2013-02-01 17:14:00,62.0,47.0,30.07,West,270,2.0,5.0,58,0.00,,,0.00,Weather View 32 v70,2013-02-02 01:14:00,
2013-02-01 17:19:00,61.0,46.1,30.07,SW,225,1.0,5.0,58,0.00,,,0.00,Weather View 32 v70,2013-02-02 01:19:00,
2013-02-01 17:24:00,61.0,38.3,30.08,SW,225,2.0,6.0,43,0.00,,,0.00,Weather View 32 v70,2013-02-02 01:24:00,
2013-02-01 17:29:00,61.0,46.5,30.08,SW,225,4.0,6.0,59,0.00,,,0.00,Weather View 32 v70,2013-02-02 01:29:00,
2013-02-01 17:39:00,59.0,45.1,30.09,SW,225,0.0,7.0,60,0.00,,,0.00,Weather View 32 v70,2013-02-02 01:39:00,
2013-02-01 17:44:00,59.0,45.1,30.09,WSW,247,0.0,7.0,60,0.00,,,0.00,Weather View 32 v70,2013-02-02 01:44:00,
2013-02-01 17:49:00,58.0,44.6,30.09,SW,225,0.0,7.0,61,0.00,,,0.00,Weather View 32 v70,2013-02-02 01:49:00,
2013-02-01 17:54:00,58.0,45.4,30.10,SW,225,0.0,7.0,63,0.00,,,0.00,Weather View 32 v70,2013-02-02 01:54:00,
2013-02-01 17:59:00,57.0,44.9,30.11,SW,225,1.0,7.0,64,0.00,,,0.00,Weather View 32 v70,2013-02-02 01:59:00,
2013-02-01 18:04:00,57.0,45.3,30.11,SW,225,0.0,7.0,65,0.00,,,0.00,Weather View 32 v70,2013-02-02 02:04:00,
2013-02-01 18:09:00,57.0,45.7,30.11,WSW,247,0.0,7.0,66,0.00,,,0.00,Weather View 32 v70,2013-02-02 02:09:00,
2013-02-01 18:14:00,57.0,46.1,30.11,SW,225,0.0,7.0,67,0.00,,,0.00,Weather View 32 v70,2013-02-02 02:14:00,
2013-02-01 18:19:00,57.0,46.5,30.11,WSW,247,0.0,7.0,68,0.00,,,0.00,Weather View 32 v70,2013-02-02 02:19:00,
2013-02-01 18:24:00,57.0,46.5,30.11,West,270,0.0,7.0,68,0.00,,,0.00,Weather View 32 v70,2013-02-02 02:24:00,
2013-02-01 18:29:00,57.0,47.3,30.11,WSW,247,1.0,7.0,70,0.00,,,0.00,Weather View 32 v70,2013-02-02 02:29:00,
2013-02-01 18:34:00,58.0,48.2,30.10,WSW,247,0.0,7.0,70,0.00,,,0.00,Weather View 32 v70,2013-02-02 02:34:00,
2013-02-01 18:39:00,57.0,47.7,30.10,WSW,247,0.0,7.0,71,0.00,,,0.00,Weather View 32 v70,2013-02-02 02:39:00,
2013-02-01 18:44:00,57.0,48.0,30.11,WSW,247,0.0,6.0,72,0.00,,,0.00,Weather View 32 v70,2013-02-02 02:44:00,
2013-02-01 18:48:00,57.0,48.0,30.11,WSW,247,0.0,6.0,72,0.00,,,0.00,Weather View 32 v70,2013-02-02 02:48:00,
2013-02-01 18:54:00,56.0,47.4,30.11,SW,225,0.0,6.0,73,0.00,,,0.00,Weather View 32 v70,2013-02-02 02:54:00,
2013-02-01 19:00:00,56.0,47.4,30.11,SW,225,0.0,6.0,73,0.00,,,0.00,Weather View 32 v70,2013-02-02 03:00:00,
2013-02-01 19:05:00,57.0,48.4,30.11,WSW,247,1.0,6.0,73,0.00,,,0.00,Weather View 32 v70,2013-02-02 03:05:00,
2013-02-01 19:10:00,57.0,48.4,30.11,NW,315,0.0,6.0,73,0.00,,,0.00,Weather View 32 v70,2013-02-02 03:10:00,
2013-02-01 19:15:00,56.0,47.4,30.11,NW,315,0.0,6.0,73,0.00,,,0.00,Weather View 32 v70,2013-02-02 03:15:00,
2013-02-01 19:20:00,56.0,47.8,30.12,NW,315,0.0,4.0,74,0.00,,,0.00,Weather View 32 v70,2013-02-02 03:20:00,
2013-02-01 19:25:00,55.0,46.8,30.12,NW,315,0.0,4.0,74,0.00,,,0.00,Weather View 32 v70,2013-02-02 03:25:00,
2013-02-01 19:30:00,55.0,46.8,30.12,NW,315,0.0,4.0,74,0.00,,,0.00,Weather View 32 v70,2013-02-02 03:30:00,
2013-02-01 19:35:00,54.0,45.9,30.12,NW,315,0.0,2.0,74,0.00,,,0.00,Weather View 32 v70,2013-02-02 03:35:00,
2013-02-01 19:40:00,54.0,45.5,30.13,NW,315,0.0,2.0,73,0.00,,,0.00,Weather View 32 v70,2013-02-02 03:40:00,
2013-02-01 19:45:00,54.0,44.8,30.13,NW,315,0.0,2.0,71,0.00,,,0.00,Weather View 32 v70,2013-02-02 03:45:00,
2013-02-01 19:49:00,54.0,44.8,30.13,NW,315,0.0,2.0,71,0.00,,,0.00,Weather View 32 v70,2013-02-02 03:49:00,
2013-02-01 19:50:00,54.0,44.0,30.13,NW,315,0.0,2.0,69,0.00,,,0.00,Weather View 32 v70,2013-02-02 03:50:00,
2013-02-01 19:55:00,54.0,43.3,30.13,NW,315,0.0,2.0,67,0.00,,,0.00,Weather View 32 v70,2013-02-02 03:55:00,
2013-02-01 20:00:00,54.0,42.9,30.13,NW,315,0.0,2.0,66,0.00,,,0.00,Weather View 32 v70,2013-02-02 04:00:00,
2013-02-01 20:04:00,54.0,42.9,30.13,WSW,247,0.0,2.0,66,0.00,,,0.00,Weather View 32 v70,2013-02-02 04:04:00,
2013-02-01 20:09:00,54.0,43.3,30.13,WSW,247,0.0,0.0,67,0.00,,,0.00,Weather View 32 v70,2013-02-02 04:09:00,
2013-02-01 20:14:00,54.0,43.3,30.13,WSW,247,0.0,0.0,67,0.00,,,0.00,Weather View 32 v70,2013-02-02 04:14:00,
2013-02-01 20:19:00,54.0,43.3,30.13,WSW,247,0.0,0.0,67,0.00,,,0.00,Weather View 32 v70,2013-02-02 04:19:00,
2013-02-01 20:24:00,54.0,43.3,30.13,WSW,247,0.0,0.0,67,0.00,,,0.00,Weather View 32 v70,2013-02-02 04:24:00,
2013-02-01 20:29:00,53.0,42.7,30.13,WSW,247,0.0,0.0,68,0.00,,,0.00,Weather View 32 v70,2013-02-02 04:29:00,
2013-02-01 20:35:00,53.0,43.5,30.13,WSW,247,0.0,0.0,70,0.00,,,0.00,Weather View 32 v70,2013-02-02 04:35:00,
2013-02-01 20:40:00,53.0,43.5,30.13,WSW,247,0.0,0.0,70,0.00,,,0.00,Weather View 32 v70,2013-02-02 04:40:00,
2013-02-01 20:45:00,53.0,43.8,30.13,WSW,247,0.0,0.0,71,0.00,,,0.00,Weather View 32 v70,2013-02-02 04:45:00,
2013-02-01 20:50:00,53.0,44.2,30.13,WSW,247,0.0,0.0,72,0.00,,,0.00,Weather View 32 v70,2013-02-02 04:50:00,
2013-02-01 20:54:00,54.0,45.9,30.13,WSW,247,0.0,0.0,74,0.00,,,0.00,Weather View 32 v70,2013-02-02 04:54:00,
2013-02-01 21:04:00,55.0,46.5,30.14,SW,225,0.0,2.0,73,0.00,,,0.00,Weather View 32 v70,2013-02-02 05:04:00,
2013-02-01 21:09:00,55.0,46.8,30.13,SW,225,0.0,3.0,74,0.00,,,0.00,Weather View 32 v70,2013-02-02 05:09:00,
2013-02-01 21:14:00,55.0,46.8,30.13,SW,225,0.0,3.0,74,0.00,,,0.00,Weather View 32 v70,2013-02-02 05:14:00,
2013-02-01 21:19:00,54.0,45.9,30.13,North,360,0.0,3.0,74,0.00,,,0.00,Weather View 32 v70,2013-02-02 05:19:00,
2013-02-01 21:24:00,54.0,45.9,30.14,NNE,22,0.0,3.0,74,0.00,,,0.00,Weather View 32 v70,2013-02-02 05:24:00,
2013-02-01 21:29:00,54.0,46.2,30.14,NNE,22,0.0,3.0,75,0.00,,,0.00,Weather View 32 v70,2013-02-02 05:29:00,
2013-02-01 21:39:00,53.0,45.3,30.14,NNE,22,0.0,3.0,75,0.00,,,0.00,Weather View 32 v70,2013-02-02 05:39:00,
2013-02-01 21:44:00,52.0,44.3,30.15,NNE,22,0.0,3.0,75,0.00,,,0.00,Weather View 32 v70,2013-02-02 05:44:00,
2013-02-01 21:49:00,52.0,44.3,30.15,NW,315,0.0,3.0,75,0.00,,,0.00,Weather View 32 v70,2013-02-02 05:49:00,
2013-02-01 21:54:00,52.0,44.3,30.15,NW,315,0.0,3.0,75,0.00,,,0.00,Weather View 32 v70,2013-02-02 05:54:00,
2013-02-01 21:59:00,51.0,43.3,30.15,NW,315,0.0,3.0,75,0.00,,,0.00,Weather View 32 v70,2013-02-02 05:59:00,
2013-02-01 22:04:00,51.0,44.4,30.15,NW,315,0.0,3.0,78,0.00,,,0.00,Weather View 32 v70,2013-02-02 06:04:00,
2013-02-01 22:09:00,51.0,43.3,30.15,NNW,337,0.0,3.0,75,0.00,,,0.00,Weather View 32 v70,2013-02-02 06:09:00,
2013-02-01 22:14:00,51.0,43.3,30.16,NW,315,2.0,2.0,75,0.00,,,0.00,Weather View 32 v70,2013-02-02 06:14:00,
2013-02-01 22:19:00,51.0,43.3,30.16,NW,315,2.0,4.0,75,0.00,,,0.00,Weather View 32 v70,2013-02-02 06:19:00,
2013-02-01 22:24:00,51.0,43.3,30.16,NW,315,0.0,4.0,75,0.00,,,0.00,Weather View 32 v70,2013-02-02 06:24:00,
2013-02-01 22:29:00,50.0,42.4,30.16,NW,315,0.0,4.0,75,0.00,,,0.00,Weather View 32 v70,2013-02-02 06:29:00,
2013-02-01 22:34:00,50.0,42.7,30.16,NW,315,0.0,4.0,76,0.00,,,0.00,Weather View 32 v70,2013-02-02 06:34:00,
2013-02-01 22:39:00,50.0,44.1,30.17,NW,315,0.0,4.0,80,0.00,,,0.00,Weather View 32 v70,2013-02-02 06:39:00,
2013-02-01 22:44:00,49.0,42.1,30.17,NW,315,0.0,4.0,77,0.00,,,0.00,Weather View 32 v70,2013-02-02 06:44:00,
2013-02-01 22:49:00,49.0,42.1,30.17,WNW,292,0.0,4.0,77,0.00,,,0.00,Weather View 32 v70,2013-02-02 06:49:00,
2013-02-01 22:51:00,49.0,42.1,30.17,WNW,292,0.0,4.0,77,0.00,,,0.00,Weather View 32 v70,2013-02-02 06:51:00,
2013-02-01 22:54:00,49.0,42.1,30.17,WSW,247,0.0,4.0,77,0.00,,,0.00,Weather View 32 v70,2013-02-02 06:54:00,
2013-02-01 22:59:00,49.0,42.1,30.17,SW,225,0.0,4.0,77,0.00,,,0.00,Weather View 32 v70,2013-02-02 06:59:00,
2013-02-01 23:04:00,49.0,42.1,30.17,WSW,247,0.0,4.0,77,0.00,,,0.00,Weather View 32 v70,2013-02-02 07:04:00,
2013-02-01 23:09:00,49.0,42.1,30.17,SW,225,0.0,4.0,77,0.00,,,0.00,Weather View 32 v70,2013-02-02 07:09:00,
2013-02-01 23:14:00,49.0,43.1,30.17,WSW,247,0.0,4.0,80,0.00,,,0.00,Weather View 32 v70,2013-02-02 07:14:00,
2013-02-01 23:19:00,49.0,42.4,30.17,WSW,247,0.0,3.0,78,0.00,,,0.00,Weather View 32 v70,2013-02-02 07:19:00,
2013-02-01 23:24:00,48.0,41.1,30.17,WSW,247,0.0,3.0,77,0.00,,,0.00,Weather View 32 v70,2013-02-02 07:24:00,
2013-02-01 23:29:00,48.0,41.5,30.18,WSW,247,0.0,3.0,78,0.00,,,0.00,Weather View 32 v70,2013-02-02 07:29:00,
2013-02-01 23:34:00,48.0,41.5,30.18,SW,225,0.0,3.0,78,0.00,,,0.00,Weather View 32 v70,2013-02-02 07:34:00,
2013-02-01 23:39:00,48.0,41.5,30.18,SW,225,0.0,7.0,78,0.00,,,0.00,Weather View 32 v70,2013-02-02 07:39:00,
2013-02-01 23:44:00,48.0,41.5,30.17,WSW,247,4.0,7.0,78,0.00,,,0.00,Weather View 32 v70,2013-02-02 07:44:00,
2013-02-01 23:49:00,49.0,43.4,30.18,WSW,247,0.0,7.0,81,0.00,,,0.00,Weather View 32 v70,2013-02-02 07:49:00,
2013-02-01 23:51:00,49.0,43.4,30.18,WSW,247,0.0,7.0,81,0.00,,,0.00,Weather View 32 v70,2013-02-02 07:51:00,
2013-02-01 23:54:00,48.0,41.5,30.18,SW,225,6.0,7.0,78,0.00,,,0.00,Weather View 32 v70,2013-02-02 07:54:00,
2013-02-01 23:59:00,48.0,41.5,30.18,SE,135,3.0,12.0,78,0.00,,,0.00,Weather View 32 v70,2013-02-02 07:59:00,